sat.trackr.live / text

‹ back to catalog

GEESAT-5 07

NORAD 65556 · 2025-201G

PAYLOAD ACTIVE UNKNOWN

§ Identity

Operator
Country
PRC
Launch date
2025-09-08
Launch site
YSLA
Launch vehicle
Mass (kg)
RCS (m²)

External: N2YO · Heavens-Above · Gunter

§ Orbital elements

Epoch: 2026-05-24T23:57:27.724320Z

Period
97.03 min
Inclination
49.9869°
Eccentricity
0.0013546
Mean motion
14.84100437 rev/d
Perigee alt
606.9 km
Apogee alt
625.9 km
Semi-major
6,994.5 km
B*
1.6833e-4
RAAN
146.7007°
Arg perigee
225.5282°
Mean anomaly
134.4549°
Rev number
3,835

§ Raw data

GEESAT-5 071 65556U 25201G   26144.99823755  .00001192  00000+0  16833-3 0  99982 65556  49.9869 146.7007 0013546 225.5282 134.4549 14.84100437 38355

JSON: /api/v1/satellites/65556 · /tle

For live sub-satellite position, see the globe view (requires WebGL).

§ Visibility from observer

Set your observer location to see the next 7 days of passes ≥ 10°. The values pass through the URL so the page stays shareable.

No JS? Fill the form by hand. The geolocation button needs JavaScript.